RADUGA-1 4 [-]

Last updated on Wed Jun 28 2023 00:02:57 GMT+0000 (Coordinated Universal Time)

1 25642U 99010A 23177.75663992 -.00000354 00000+0 00000+0 0 9996 2 25642 15.3228 10.6077 0000851 160.0772 124.2062 1.00314773 89077
UTC large
Height (km)
Speed (km/s)
/
Latitude / Longitude
Inclination (degrees)
Orbital Period (minutes)
Azimuth
Elevation
Range (km)
Doppler Factor

Next 0 passes for location: London (51.5072 / 0.1276)

Sorry there are no passes over London.